Precipitable_Water
1.54 1.69 1.66 1.58 1.55 1.45 1.42 1.41 1.35 1.56 1.50 1.53 1.61 1.54 1.46 1.33 1.23 1.14 1.06 1.05 1.11 1.15 1.14 1.09 1.04 0.96 0.91 0.90 0.90 0.89 0.90 0.91 0.93 0.89 0.89 0.93 0.95 0.94 0.91 0.87 0.89 0.90 0.95
1.56 1.62 1.57 1.45 1.41 1.42 1.46 1.51 1.44 1.43 1.48 1.42 1.37 1.35 1.28 1.20 1.07 1.00 0.99 1.05 1.11 1.12 1.09 1.07 0.98 0.95 0.94 0.93 0.92 0.89 0.86 0.86 0.87 0.91 0.88 0.88 0.95 0.92 0.92 1.03 0.99 0.99 0.97
1.59 1.68 1.62 1.46 1.46 1.48 1.46 1.53 1.57 1.50 1.44 1.35 1.30 1.24 1.24 1.11 1.03 1.01 1.01 1.05 1.06 1.05 1.02 0.99 1.05 1.05 1.03 1.04 0.90 0.86 0.80 0.81 0.82 0.82 0.84 0.86 0.87 0.88 0.99 0.97 0.95 0.94 0.94
1.53 1.67 1.70 1.63 1.73 1.60 1.58 1.53 1.47 1.51 1.53 1.42 1.36 1.26 1.13 1.09 1.05 1.04 1.03 1.01 1.02 1.01 0.98 0.98 0.97 0.99 1.00 0.99 0.92 0.88 0.81 0.76 0.77 0.77 0.77 0.80 0.83 0.87 0.91 0.89 0.86 0.86 0.85
1.46 1.57 1.64 1.44 1.69 1.67 1.69 1.64 1.57 1.47 1.62 1.51 1.38 1.17 1.09 1.16 1.13 1.08 0.98 0.94 0.96 0.98 1.01 0.96 0.92 0.96 1.00 0.96 0.90 0.77 0.71 0.70 0.71 0.72 0.71 0.73 0.77 0.83 0.84 0.81 0.75 0.77 0.73
1.41 1.52 1.60 1.55 1.42 1.54 1.73 1.61 1.47 1.39 1.55 1.70 1.41 1.13 1.08 1.14 1.17 1.04 0.94 0.87 0.94 0.99 0.96 0.89 0.88 0.95 0.96 0.93 0.88 0.76 0.69 0.67 0.68 0.68 0.71 0.73 0.74 0.79 0.75 0.73 0.72 0.68 0.68
1.29 1.41 1.48 1.56 1.50 1.51 1.54 1.57 1.54 1.55 1.49 1.75 1.43 1.11 1.13 1.09 1.10 0.99 0.92 0.88 0.92 0.96 0.92 0.89 0.95 0.97 0.97 0.92 0.85 0.82 0.70 0.68 0.66 0.68 0.68 0.70 0.75 0.76 0.73 0.70 0.68 0.67 0.65
1.41 1.45 1.44 1.49 1.55 1.48 1.50 1.51 1.57 1.71 1.61 1.76 1.32 1.16 1.17 1.18 1.07 0.97 0.91 0.86 0.89 0.93 0.86 0.90 1.00 0.98 0.96 0.92 0.89 0.81 0.79 0.72 0.70 0.68 0.68 0.69 0.73 0.74 0.71 0.69 0.67 0.65 0.62
1.48 1.50 1.52 1.51 1.50 1.48 1.50 1.52 1.53 1.61 1.69 1.69 1.40 1.18 1.15 1.05 1.03 0.97 0.90 0.84 0.87 0.89 0.89 0.88 0.96 1.00 0.98 0.96 0.93 0.87 0.83 0.74 0.66 0.67 0.69 0.71 0.72 0.72 0.70 0.68 0.67 0.63 0.62
1.45 1.47 1.49 1.51 1.56 1.54 1.58 1.70 1.63 1.73 1.73 1.57 1.39 1.31 1.12 1.17 1.05 0.96 0.86 0.77 0.76 0.87 0.89 0.84 0.84 0.96 0.98 1.00 0.95 0.92 0.83 0.74 0.64 0.65 0.68 0.71 0.72 0.71 0.70 0.66 0.65 0.64 0.64
1.37 1.45 1.51 1.50 1.52 1.48 1.53 1.52 1.59 1.70 1.66 1.58 1.47 1.39 1.22 1.10 1.04 0.94 0.86 0.78 0.75 0.81 0.87 0.84 0.85 0.91 0.95 0.98 0.93 0.88 0.81 0.73 0.65 0.63 0.68 0.71 0.71 0.68 0.65 0.65 0.65 0.64 0.63
1.19 1.33 1.42 1.46 1.45 1.49 1.49 1.47 1.48 1.54 1.56 1.57 1.39 1.23 1.04 1.01 1.01 0.99 0.91 0.83 0.78 0.78 0.82 0.86 0.85 0.90 0.91 0.95 0.92 0.83 0.76 0.71 0.68 0.67 0.71 0.71 0.69 0.68 0.64 0.63 0.65 0.66 0.62
1.14 1.30 1.39 1.39 1.42 1.42 1.40 1.42 1.47 1.51 1.56 1.51 1.37 1.08 1.01 1.03 1.08 1.05 0.98 0.90 0.82 0.83 0.84 0.85 0.82 0.78 0.86 0.85 0.81 0.77 0.73 0.69 0.70 0.71 0.69 0.69 0.69 0.67 0.67 0.66 0.64 0.63 0.59
1.10 1.18 1.34 1.37 1.36 1.36 1.40 1.40 1.46 1.49 1.51 1.48 1.38 1.10 1.05 1.04 1.05 1.04 1.01 0.95 0.90 0.88 0.86 0.84 0.79 0.76 0.72 0.75 0.72 0.68 0.68 0.66 0.67 0.68 0.69 0.69 0.71 0.71 0.68 0.66 0.64 0.61 0.59
1.10 1.17 1.26 1.30 1.28 1.31 1.35 1.40 1.44 1.45 1.43 1.46 1.38 1.14 1.06 1.05 1.07 1.09 1.07 0.99 0.94 0.95 0.95 0.88 0.80 0.73 0.67 0.67 0.64 0.62 0.63 0.63 0.67 0.68 0.72 0.73 0.76 0.76 0.76 0.74 0.71 0.69 0.62
1.13 1.19 1.27 1.27 1.28 1.31 1.34 1.34 1.36 1.43 1.44 1.43 1.39 1.21 1.09 1.06 1.06 1.06 1.01 0.98 0.98 1.00 1.00 0.95 0.88 0.77 0.66 0.62 0.58 0.59 0.58 0.60 0.66 0.70 0.74 0.79 0.80 0.79 0.80 0.79 0.77 0.75 0.69
1.19 1.22 1.24 1.28 1.29 1.30 1.30 1.33 1.38 1.37 1.41 1.37 1.29 1.23 1.12 1.05 1.02 1.00 0.98 0.99 1.00 1.03 1.01 0.97 0.92 0.85 0.71 0.61 0.56 0.60 0.59 0.58 0.59 0.63 0.73 0.76 0.80 0.81 0.81 0.81 0.77 0.70 0.67
1.19 1.22 1.30 1.35 1.38 1.34 1.34 1.37 1.41 1.39 1.34 1.27 1.24 1.26 1.13 1.04 1.02 0.97 0.93 0.96 1.01 1.04 1.03 1.01 0.97 0.88 0.75 0.67 0.58 0.55 0.59 0.59 0.59 0.60 0.65 0.74 0.79 0.78 0.80 0.78 0.74 0.71 0.65
1.14 1.24 1.26 1.31 1.30 1.35 1.39 1.37 1.42 1.39 1.30 1.26 1.19 1.17 1.04 0.99 0.99 0.94 0.92 0.93 0.99 1.02 1.04 1.05 1.03 0.98 0.88 0.78 0.69 0.63 0.58 0.58 0.61 0.65 0.63 0.68 0.76 0.79 0.78 0.79 0.78 0.75 0.69
1.11 1.23 1.27 1.29 1.35 1.37 1.33 1.34 1.35 1.31 1.26 1.27 1.17 1.10 1.04 1.01 1.00 0.96 0.94 0.92 0.94 1.01 1.03 1.06 1.06 1.06 1.00 0.91 0.82 0.75 0.71 0.68 0.69 0.69 0.69 0.73 0.77 0.82 0.84 0.85 0.85 0.82 0.75
1.03 1.20 1.26 1.28 1.32 1.31 1.28 1.24 1.25 1.19 1.19 1.13 1.09 1.13 1.10 1.05 0.99 0.96 0.98 0.97 0.94 0.93 0.99 1.05 1.06 1.01 0.99 0.96 0.87 0.82 0.80 0.79 0.76 0.77 0.80 0.82 0.83 0.86 0.87 0.87 0.86 0.83 0.79
0.88 1.01 1.13 1.19 1.25 1.27 1.25 1.25 1.23 1.18 1.18 1.13 1.14 1.09 1.06 1.04 1.01 0.99 1.00 0.94 0.95 0.91 0.96 1.00 1.01 1.00 1.01 1.01 0.89 0.85 0.74 0.79 0.84 0.87 0.89 0.89 0.90 0.92 0.92 0.90 0.88 0.86 0.81
0.79 0.85 0.93 0.99 1.06 1.17 1.19 1.17 1.13 1.10 1.09 1.04 1.01 1.00 1.03 1.03 1.04 1.04 1.01 0.94 0.93 0.93 0.88 0.90 0.98 0.99 0.95 1.01 1.01 0.88 0.76 0.71 0.86 0.92 0.91 0.89 0.86 0.87 0.88 0.88 0.87 0.87 0.84
0.73 0.82 0.84 0.89 0.92 1.00 1.00 0.94 0.92 0.88 0.86 0.87 0.87 0.89 0.90 0.96 0.96 0.97 0.95 0.91 0.91 0.91 0.92 0.92 1.00 1.03 1.03 0.96 1.03 1.03 0.98 0.92 0.81 0.76 0.90 0.91 0.89 0.87 0.86 0.86 0.85 0.84 0.83
0.67 0.72 0.77 0.81 0.84 0.90 0.91 0.86 0.82 0.80 0.81 0.83 0.83 0.80 0.83 0.88 0.90 0.90 0.91 0.90 0.92 0.98 1.00 1.02 1.07 1.06 1.10 1.04 1.02 1.02 0.94 0.93 0.88 0.82 0.71 0.77 0.87 0.88 0.92 0.87 0.86 0.84 0.81
0.67 0.67 0.68 0.69 0.71 0.77 0.79 0.80 0.78 0.76 0.75 0.73 0.72 0.73 0.78 0.86 0.88 0.90 0.96 0.93 0.97 1.04 1.10 1.11 1.13 1.14 1.12 1.10 1.08 1.03 0.97 0.87 0.90 0.75 0.76 0.79 0.80 0.86 0.86 0.85 0.82 0.80 0.77
Wind_Speed
19 21 20 21 21 22 21 19 19 22 21 22 21 20 19 16 14 13 13 12 12 11 10 9 8 7 7 6 6 6 5 5 5 5 5 5 5 5 5 5 5 5 5
19 22 23 22 22 21 21 19 20 25 23 24 21 20 20 18 15 14 14 14 13 12 10 9 8 8 7 6 6 6 5 5 4 5 4 5 5 5 5 6 6 6 6
17 20 20 23 24 24 22 20 20 24 25 25 24 22 20 19 17 16 16 15 14 12 11 9 8 8 8 6 6 5 5 4 3 3 4 4 4 5 5 5 6 7 7
19 20 21 21 25 23 23 23 22 21 26 28 26 24 22 20 20 18 17 16 14 13 11 9 9 8 7 6 5 4 3 3 3 3 3 3 4 5 5 6 6 7 6
22 22 25 22 20 16 20 21 22 21 29 29 28 26 25 23 21 20 18 16 15 13 11 10 9 8 8 7 5 4 3 3 3 3 4 4 4 5 5 6 6 6 6
22 23 22 24 26 24 25 26 28 27 28 31 31 28 27 25 24 21 19 17 15 13 11 10 9 9 8 7 5 4 3 3 3 3 4 4 4 5 5 5 5 6 6
22 23 24 24 23 25 27 29 30 32 34 39 33 30 29 27 25 23 19 17 15 14 12 10 10 10 8 6 5 4 4 3 3 4 4 4 5 5 5 4 5 5 5
17 21 23 23 22 23 25 27 27 33 36 42 35 33 30 27 25 23 21 18 16 15 12 11 10 10 8 7 6 5 4 4 4 4 4 4 5 4 4 4 4 4 5
11 14 18 18 17 15 15 23 32 33 42 43 37 34 31 28 26 25 22 19 17 15 13 11 10 10 9 7 6 6 4 4 4 4 4 4 4 4 3 3 3 3 4
6 9 13 15 15 12 8 6 21 35 40 39 38 35 32 28 29 25 22 19 17 16 13 11 10 10 9 7 6 6 5 5 4 5 5 4 4 3 2 2 2 2 3
6 8 11 14 14 11 9 8 8 28 41 42 38 35 31 31 28 25 22 19 17 15 13 12 11 9 10 8 8 7 6 5 5 5 5 4 3 3 2 2 1 1 2
6 7 8 12 11 9 8 9 13 24 33 37 36 35 33 31 28 25 22 20 17 15 13 11 11 10 10 9 9 8 7 7 6 6 5 5 4 4 3 2 1 1 2
9 8 9 10 11 10 7 9 15 26 33 32 32 34 32 31 28 24 21 19 17 15 13 12 11 10 10 10 10 9 8 8 7 7 6 6 5 4 3 3 3 3 4
11 11 11 11 11 12 10 11 17 24 30 31 31 32 32 30 26 24 21 19 16 14 12 11 11 11 10 11 10 10 9 8 8 7 7 7 6 5 4 4 5 5 6
11 13 14 12 12 14 13 14 17 22 30 31 31 30 30 28 26 24 22 20 17 15 12 10 10 10 10 11 10 10 9 9 8 8 8 7 6 6 6 6 7 8 8
11 15 15 15 15 15 16 16 20 22 25 29 30 29 29 26 25 24 22 19 17 15 13 11 10 10 10 11 11 11 10 9 9 9 8 8 7 7 8 8 9 11 12
12 15 17 17 18 18 18 19 21 22 23 27 30 29 27 25 25 23 21 19 17 14 13 11 11 10 10 11 11 11 10 10 9 10 9 9 9 10 11 11 12 13 15
12 16 18 19 19 20 18 20 22 23 24 27 28 28 26 25 24 22 20 19 17 16 14 12 11 10 9 10 11 11 11 11 10 10 11 11 12 13 14 14 15 16 17
10 15 18 20 21 21 21 22 23 23 26 27 27 26 26 25 24 22 20 19 18 16 14 13 12 12 11 10 11 11 12 12 12 13 14 15 16 16 17 17 18 19 21
8 14 18 19 22 22 23 23 22 23 25 27 26 26 25 24 23 21 20 20 18 16 15 14 13 13 13 13 13 14 14 15 16 17 18 19 20 20 21 21 22 22 24
6 12 17 20 20 23 24 24 23 23 25 25 26 25 24 23 22 22 20 18 17 16 16 15 15 15 15 16 16 17 18 20 21 21 22 23 24 24 24 25 26 26 25
7 10 14 15 19 22 24 25 23 23 25 24 23 24 24 23 22 21 19 18 17 17 17 17 17 16 17 18 17 18 20 22 24 26 25 25 27 27 27 29 29 29 29
9 11 13 13 15 17 22 22 22 23 24 23 23 23 23 23 21 21 20 19 19 19 19 19 19 19 18 19 20 19 19 23 24 25 28 29 30 30 30 31 31 31 32
11 11 12 13 14 17 20 22 22 22 22 22 22 22 22 22 22 22 21 20 20 20 21 21 20 20 20 20 20 22 22 22 22 25 27 29 29 30 31 32 32 32 33
11 12 13 13 14 16 19 20 20 20 21 21 21 22 22 21 22 23 22 21 21 21 22 21 22 22 23 23 23 22 23 24 25 26 27 28 29 30 31 30 32 33 35
11 13 14 14 15 16 18 19 19 20 20 21 21 22 22 22 23 23 24 24 23 23 23 23 23 24 24 25 26 26 26 25 27 28 28 28 29 28 28 31 31 33 36
Wind_Direction
243 234 236 235 230 224 225 229 219 206 206 199 197 200 198 197 197 193 187 182 178 174 169 162 159 153 146 142 135 124 113 104 91 83 81 81 82 79 73 70 67 67 65
248 240 236 233 225 222 220 219 215 209 205 201 202 202 201 201 199 191 185 182 179 175 172 169 164 155 149 142 133 126 117 104 96 84 84 85 84 76 75 69 70 70 66
247 237 234 228 226 225 218 214 209 206 205 206 207 204 202 200 195 188 183 180 176 175 175 174 166 163 157 143 132 123 116 112 100 87 87 89 86 82 79 77 73 70 66
247 238 229 226 226 218 216 214 208 209 212 210 207 203 201 197 192 185 181 177 175 174 174 173 169 166 168 154 143 137 126 117 106 100 98 98 93 89 88 82 78 73 70
243 236 234 239 198 205 199 204 215 226 216 209 206 205 201 193 189 184 180 179 178 178 176 171 171 166 160 162 156 146 139 133 125 112 108 106 102 99 92 86 76 76 70
244 240 240 237 238 238 240 239 235 227 214 211 204 201 196 193 183 184 183 182 181 183 178 173 172 168 164 164 163 157 154 146 137 126 118 114 114 106 98 89 82 78 70
245 241 238 239 239 248 243 241 239 231 229 206 199 196 193 191 192 187 187 187 185 181 178 175 174 172 170 170 177 169 161 155 146 139 131 126 121 114 102 90 84 74 63
249 242 237 236 240 250 243 242 240 230 218 199 195 192 190 188 187 186 187 186 184 183 180 174 175 175 179 175 174 171 167 157 151 145 141 138 134 125 111 98 83 68 55
249 235 226 229 233 233 252 248 241 230 200 189 189 188 186 185 190 187 183 183 185 184 181 177 178 183 180 182 187 181 176 172 155 152 152 147 144 137 125 105 80 63 52
249 232 225 220 222 249 269 271 223 195 190 189 186 188 188 189 182 185 185 187 186 188 188 185 181 184 191 196 196 186 182 175 169 166 159 160 158 156 148 124 90 70 54
245 234 225 221 230 245 239 221 170 185 192 196 187 186 186 181 183 182 184 186 187 188 190 188 185 188 196 202 201 195 202 190 183 180 179 178 183 180 175 169 129 72 35
240 228 218 211 223 216 213 212 192 182 182 175 179 181 180 182 182 182 184 186 189 190 194 196 196 199 203 214 212 209 207 202 202 199 200 200 198 196 198 205 215 301 342
231 219 208 204 205 201 199 178 179 175 176 176 178 181 184 185 185 186 187 188 188 193 200 207 207 208 221 213 211 211 208 210 212 211 205 200 203 208 217 230 254 277 298
230 215 209 207 204 196 184 174 170 181 187 181 181 185 187 187 192 188 188 190 195 195 199 205 213 216 210 210 207 208 210 212 214 208 207 207 215 227 239 253 268 279 291
223 212 204 198 191 184 177 167 161 162 172 176 178 182 185 188 190 192 195 192 193 197 201 209 214 212 209 207 209 208 211 215 212 213 215 221 230 242 253 265 274 283 290
215 203 198 193 187 185 178 174 169 164 167 175 178 180 180 185 188 187 189 192 197 204 212 209 210 209 208 209 212 212 216 217 220 222 223 233 245 254 264 274 281 287 287
212 202 200 196 191 185 181 178 175 175 176 179 182 182 184 187 188 189 193 198 202 207 200 205 208 209 212 212 217 219 221 223 229 228 236 250 256 263 270 277 282 285 288
210 205 199 194 190 189 189 187 185 187 185 182 182 186 189 190 191 195 201 205 209 203 208 213 214 215 217 220 222 229 231 233 238 240 247 258 263 267 271 278 284 286 289
214 202 198 197 195 193 192 188 187 187 187 187 189 192 193 194 198 202 207 209 204 209 212 216 221 223 225 230 234 235 239 245 249 253 258 264 268 271 273 279 286 289 291
211 201 199 199 197 194 190 189 189 190 191 191 193 195 197 201 204 209 207 204 205 211 216 221 227 231 236 238 243 247 250 253 257 262 265 270 272 273 274 277 282 290 292
192 193 193 192 189 192 193 191 192 193 191 194 198 200 201 200 196 193 194 200 208 217 224 230 234 238 244 246 251 256 259 261 264 267 270 272 273 273 275 277 280 285 290
169 171 175 184 193 200 199 197 197 195 191 192 191 190 191 192 196 199 206 213 220 227 231 236 240 245 250 252 256 263 268 269 270 269 271 275 276 274 277 277 278 280 285
175 169 170 171 172 177 180 182 181 182 185 187 190 194 196 200 205 210 217 224 231 236 239 242 244 249 254 256 258 264 277 275 275 274 271 278 275 273 277 278 279 279 282
183 181 178 173 170 171 173 176 180 183 185 191 194 198 203 209 213 219 226 233 237 241 243 246 249 251 256 260 264 265 275 284 281 281 275 278 277 274 276 279 279 278 281
187 188 185 184 182 181 181 182 185 189 193 197 202 206 212 217 221 226 231 238 241 244 245 247 251 256 258 262 264 268 278 281 283 281 284 280 280 278 278 281 281 281 285
195 194 193 192 191 188 188 192 195 198 201 206 210 216 220 225 230 234 238 243 245 248 249 252 256 260 262 264 267 269 275 284 281 287 282 282 281 281 279 284 283 286 290